Vernal, UT

4:59 AM MST on February 10, 2016 (GMT -0700)
Vernal

Weather History for KVEL - April, 2013

Change the Weather History Date:

Wednesday, April 3, 2013

  Actual Average Record
Temperature  
Mean Temperature 46 °F 43 °F  
Max Temperature 62 °F 56 °F 73 °F (1959)
Min Temperature 30 °F 31 °F 6 °F (1945)
Degree Days  
Heating Degree Days 19 22  
Month to date heating degree days 55 66  
Since 1 July heating degree days 6785 6397  
Cooling Degree Days 0 0  
Month to date cooling degree days 0 0  
Year to date cooling degree days 0 0  
Moisture  
Dew Point 33 °F    
Average Humidity 61    
Maximum Humidity 100    
Minimum Humidity 22    
Precipitation  
Precipitation 0.00 in 0.02 in 0.50 in (1934)
Month to date precipitation 0.26 0.06  
Year to date precipitation 1.98 1.76  
Sea Level Pressure  
Sea Level Pressure 30.13 in    
Wind  
Wind Speed 4 mph (West)    
Max Wind Speed 7 mph    
Max Gust Speed 7 mph    
Visibility 9 miles    
Events Fog    
T = Trace of Precipitation, MM = Missing Value Source: NWS Daily Summary

Daily Weather History Graph

Daily Weather History Graph

Search for Another Location

Airport or City:

Trip Planner

Search our weather history database for the weather conditions in past years. The results will help you decide how hot, cold, wet, or windy it might be!

Date:

Astronomy

Apr. 03, 2013 Rise Set
Actual Time 6:57 AM MDT 7:45 PM MDT
Civil Twilight 6:30 AM MDT 8:12 PM MDT
Nautical Twilight 5:57 AM MDT 8:45 PM MDT
Astronomical Twilight 5:24 AM MDT 9:19 PM MDT
Moon 2:42 AM MDT (4/3) 12:59 PM MDT (4/3)
Length of Visible Light 13h 42m
Length of Day
12h 47m
Last Quarter, 44% of the Moon is Illuminated
Apr 3
Last Quarter
Apr 10
New
Apr 18
First Quarter
Apr 25
Full
May 2
Last Quarter

Hourly Weather History & Observations

Time (MDT) Temp. Windchill Dew Point Humidity Pressure Visibility Wind Dir Wind Speed Gust Speed Precip Events Conditions
12:53 AM 35.1 °F - 33.1 °F 92% 30.09 in 9.0 mi Calm Calm - N/A   Clear
1:53 AM 33.1 °F 28.7 °F 30.9 °F 92% 30.08 in 10.0 mi West 4.6 mph - N/A   Clear
2:53 AM 32.0 °F 26.4 °F 30.0 °F 92% 30.07 in 10.0 mi West 5.8 mph - N/A   Clear
3:53 AM 33.1 °F 30.0 °F 30.0 °F 89% 30.06 in 10.0 mi WNW 3.5 mph - N/A   Clear
4:53 AM 32.0 °F 26.4 °F 28.9 °F 88% 30.09 in 10.0 mi SSE 5.8 mph - N/A   Clear
5:53 AM 30.0 °F - 28.0 °F 92% 30.12 in 10.0 mi Calm Calm - N/A   Clear
6:06 AM 32.0 °F 27.5 °F 28.4 °F 87% 30.14 in 1.5 mi South 4.6 mph - N/A   Partly Cloudy
6:08 AM 32.0 °F 27.5 °F 30.2 °F 93% 30.13 in 0.8 mi South 4.6 mph - N/A   Mist
6:16 AM 32.0 °F 28.7 °F 30.2 °F 93% 30.14 in 0.2 mi SW 3.5 mph - N/A Fog Fog
6:35 AM 33.8 °F - 32.0 °F 93% 30.15 in 1.8 mi Calm Calm - N/A   Overcast
6:38 AM 33.8 °F - 32.0 °F 93% 30.15 in 3.0 mi Calm Calm - N/A   Overcast
6:53 AM 33.1 °F - 32.0 °F 96% 30.14 in 9.0 mi Calm Calm - N/A   Overcast
7:53 AM 36.0 °F 32.1 °F 35.1 °F 97% 30.16 in 10.0 mi NW 4.6 mph - N/A   Overcast
8:35 AM 37.4 °F 33.8 °F 35.6 °F 93% 30.18 in 10.0 mi NNW 4.6 mph - N/A   Overcast
8:53 AM 39.0 °F 34.8 °F 37.0 °F 93% 30.17 in 10.0 mi NNW 5.8 mph - N/A   Overcast
9:53 AM 41.0 °F 39.0 °F 37.0 °F 86% 30.19 in 10.0 mi WNW 3.5 mph - N/A   Overcast
10:53 AM 43.0 °F 41.3 °F 37.0 °F 80% 30.18 in 10.0 mi NNE 3.5 mph - N/A   Overcast
11:16 AM 44.6 °F - 37.4 °F 76% 30.20 in 10.0 mi Calm Calm - N/A   Overcast
11:53 AM 48.0 °F - 39.0 °F 71% 30.19 in 10.0 mi NE 4.6 mph - N/A   Mostly Cloudy
12:08 PM 48.2 °F - 39.2 °F 71% 30.21 in 10.0 mi Calm Calm - N/A   Scattered Clouds
12:53 PM 50.0 °F - 39.0 °F 66% 30.17 in 10.0 mi East 3.5 mph - N/A   Clear
1:53 PM 54.0 °F - 39.0 °F 57% 30.14 in 10.0 mi ENE 3.5 mph - N/A   Partly Cloudy
2:53 PM 57.0 °F - 35.1 °F 44% 30.11 in 10.0 mi ESE 4.6 mph - N/A   Clear
3:53 PM 60.1 °F - 34.0 °F 38% 30.08 in 10.0 mi Variable 3.5 mph - N/A   Clear
4:53 PM 61.0 °F - 28.0 °F 29% 30.06 in 10.0 mi Calm Calm - N/A   Clear
5:53 PM 61.0 °F - 21.0 °F 21% 30.06 in 10.0 mi WSW 5.8 mph - N/A   Partly Cloudy
6:53 PM 60.1 °F - 24.1 °F 25% 30.06 in 10.0 mi SW 3.5 mph - N/A   Partly Cloudy
7:53 PM 55.9 °F - 30.9 °F 39% 30.07 in 10.0 mi Calm Calm - N/A   Clear
8:53 PM 51.1 °F - 33.1 °F 50% 30.09 in 10.0 mi WSW 6.9 mph - N/A   Clear
9:53 PM 48.9 °F - 34.0 °F 56% 30.12 in 10.0 mi Calm Calm - N/A   Overcast
10:53 PM 48.0 °F - 33.1 °F 56% 30.12 in 10.0 mi West 5.8 mph - N/A   Overcast
11:53 PM 46.9 °F - 30.0 °F 52% 30.11 in 10.0 mi West 3.5 mph - N/A   Clear